Location: Unspecified
(51.0000°N, 12.0000°E)
Time: 00:09:13
(UTC+01:00)

ISS - Pass Details

Date: 04 December 2020
Orbit: 418 x 419 km, 51.6° (Epoch: 18 January)

Event Time Altitude Azimuth Distance (km) Brightness Sun altitude
Rises 16:32:13 0° 275° (W) 2,370 1.1 -4.1°
Reaches altitude 10° 16:34:19 10° 277° (W) 1,505 0.0 -4.4°
Maximum altitude 16:37:42 79° 5° (N) 432 -3.7 -4.9°
Drops below altitude 10° 16:41:05 10° 92° (E) 1,502 -1.5 -5.3°
Enters shadow 16:42:24 - 93° (E) 2,043 -0.8 -5.5°
